Location: Newark
(25.6108°S, 54.5803°W)
Time: 13:44:45
(UTC+00:00)

Courier 1B Rocket - Pass Details

Date: 29 October 2020
Orbit: 920 x 1202 km, 28.2° (Epoch: 01 December)

Event Time Altitude Azimuth Distance (km) Brightness Sun altitude
Rises 08:29:37 0° 300° (WNW) 4,014 - -5.5°
Exits shadow 08:31:04 - 302° (WNW) 3,518 7.3 -5.2°
Reaches altitude 10° 08:32:32 10° 304° (NW) 3,022 7.0 -4.9°
Maximum altitude 08:39:50 59° 21° (NNE) 1,243 5.7 -3.4°
Drops below altitude 10° 08:46:38 10° 99° (E) 2,828 9.5 -1.9°
Sets 08:49:17 0° 102° (ESE) 3,740 11.5 -1.3°
